Location: Hilton Head Island
(32.2163°N, 80.7526°W)
Time: 17:49:36
(UTC-04:00)

A-11 Canister half - Pass Details

Date: 16 February 2026
Orbit: 1525 x 1683 km, 47.3° (Epoch: 10 March)

Event Time Altitude Azimuth Distance (km) Brightness Sun altitude
Rises 22:54:01 0° 308° (NW) 4,676 12.0 -58.9°
Reaches altitude 10° 22:57:05 10° 311° (NW) 3,698 11.3 -59.4°
Enters shadow 22:58:24 15° 313° (NW) 3,288 11.0 -59.6°
